QPF
0.00 0.00 0.00 0.00 0.00 0.00 0.00 0.00 0.00 0.00 0.01 0.01 0.01 0.01 0.01 0.01 0.01 0.01 0.00 0.00 0.00 0.00 0.00 0.00 0.00 0.01 0.01 0.00 0.00 0.00 0.00 0.00 0.00 0.00 0.00 0.00 0.00 0.00 0.01 0.01 0.01 0.02 0.02 0.01 0.01 0.01 0.01 0.01 0.01
0.00 0.00 0.00 0.00 0.00 0.00 0.00 0.00 0.00 0.00 0.01 0.01 0.01 0.00 0.00 0.00 0.00 0.00 0.00 0.00 0.00 0.00 0.00 0.00 0.00 0.00 0.01 0.01 0.01 0.00 0.00 0.00 0.00 0.00 0.00 0.00 0.00 0.00 0.01 0.02 0.02 0.03 0.03 0.02 0.01 0.01 0.01 0.01 0.01
0.00 0.00 0.00 0.00 0.00 0.00 0.00 0.00 0.00 0.01 0.01 0.00 0.00 0.00 0.00 0.00 0.00 0.00 0.00 0.00 0.00 0.00 0.00 0.00 0.00 0.00 0.00 0.01 0.02 0.02 0.01 0.01 0.01 0.01 0.01 0.00 0.01 0.01 0.01 0.02 0.03 0.03 0.04 0.04 0.03 0.02 0.01 0.01 0.00
0.00 0.00 0.00 0.00 0.00 0.00 0.00 0.00 0.00 0.01 0.01 0.00 0.00 0.00 0.00 0.00 0.00 0.00 0.00 0.00 0.00 0.00 0.00 0.00 0.00 0.00 0.00 0.01 0.01 0.02 0.02 0.02 0.02 0.02 0.02 0.01 0.01 0.01 0.01 0.02 0.03 0.04 0.05 0.05 0.05 0.04 0.02 0.01 0.01
0.00 0.00 0.00 0.00 0.00 0.00 0.00 0.00 0.00 0.00 0.00 0.00 0.00 0.00 0.00 0.00 0.01 0.01 0.00 0.00 0.00 0.00 0.00 0.00 0.00 0.00 0.00 0.00 0.01 0.01 0.02 0.02 0.02 0.03 0.03 0.02 0.01 0.01 0.02 0.03 0.03 0.03 0.04 0.05 0.05 0.04 0.02 0.01 0.01
0.00 0.00 0.00 0.00 0.00 0.00 0.00 0.00 0.00 0.00 0.00 0.00 0.00 0.00 0.00 0.00 0.01 0.01 0.01 0.01 0.00 0.00 0.00 0.00 0.00 0.00 0.00 0.00 0.00 0.01 0.01 0.01 0.01 0.01 0.01 0.01 0.00 0.01 0.01 0.02 0.02 0.02 0.02 0.03 0.03 0.03 0.02 0.01 0.01
0.00 0.00 0.00 0.00 0.00 0.00 0.00 0.00 0.00 0.00 0.00 0.00 0.00 0.00 0.00 0.01 0.01 0.01 0.02 0.02 0.01 0.00 0.00 0.00 0.00 0.00 0.00 0.00 0.00 0.00 0.00 0.00 0.00 0.00 0.00 0.00 0.00 0.00 0.01 0.01 0.02 0.02 0.02 0.02 0.01 0.01 0.00 0.00 0.00
0.00 0.00 0.00 0.00 0.00 0.00 0.00 0.00 0.00 0.00 0.00 0.00 0.00 0.00 0.00 0.00 0.01 0.02 0.02 0.02 0.01 0.01 0.01 0.01 0.02 0.02 0.01 0.00 0.00 0.00 0.00 0.00 0.00 0.00 0.00 0.01 0.01 0.01 0.01 0.01 0.01 0.01 0.01 0.01 0.00 0.00 0.00 0.00 0.00
0.00 0.00 0.00 0.00 0.00 0.00 0.00 0.00 0.00 0.00 0.00 0.00 0.00 0.00 0.00 0.00 0.00 0.01 0.02 0.02 0.02 0.02 0.03 0.03 0.03 0.02 0.00 0.00 0.00 0.00 0.00 0.00 0.00 0.00 0.01 0.01 0.00 0.00 0.01 0.01 0.00 0.00 0.00 0.00 0.00 0.00 0.00 0.00 0.00
0.00 0.00 0.00 0.00 0.00 0.00 0.00 0.00 0.00 0.00 0.00 0.00 0.00 0.00 0.00 0.00 0.00 0.01 0.02 0.03 0.03 0.04 0.02 0.01 0.01 0.00 0.00 0.00 0.00 0.00 0.00 0.00 0.00 0.00 0.00 0.00 0.00 0.00 0.00 0.00 0.00 0.00 0.00 0.00 0.00 0.00 0.00 0.00 0.00
0.00 0.00 0.00 0.00 0.00 0.00 0.00 0.00 0.00 0.00 0.00 0.00 0.00 0.00 0.00 0.00 0.00 0.01 0.02 0.03 0.07 0.09 0.06 0.02 0.00 0.00 0.00 0.00 0.00 0.00 0.00 0.00 0.00 0.00 0.00 0.00 0.00 0.00 0.00 0.00 0.00 0.00 0.00 0.00 0.00 0.00 0.00 0.00 0.00
0.00 0.00 0.00 0.00 0.00 0.00 0.00 0.00 0.00 0.00 0.00 0.00 0.00 0.00 0.00 0.00 0.00 0.01 0.02 0.04 0.07 0.15 0.12 0.04 0.01 0.00 0.00 0.00 0.00 0.00 0.00 0.00 0.00 0.00 0.00 0.00 0.00 0.00 0.00 0.00 0.00 0.00 0.00 0.00 0.00 0.00 0.00 0.00 0.00
0.00 0.00 0.00 0.00 0.00 0.00 0.00 0.00 0.00 0.00 0.00 0.00 0.00 0.00 0.00 0.00 0.00 0.00 0.02 0.04 0.05 0.12 0.14 0.04 0.01 0.01 0.00 0.00 0.00 0.00 0.00 0.00 0.00 0.00 0.00 0.00 0.00 0.00 0.00 0.00 0.00 0.00 0.00 0.00 0.00 0.00 0.00 0.00 0.00
0.00 0.00 0.00 0.00 0.00 0.00 0.00 0.00 0.00 0.00 0.00 0.00 0.00 0.00 0.00 0.00 0.00 0.01 0.01 0.03 0.04 0.06 0.09 0.03 0.01 0.00 0.00 0.00 0.00 0.00 0.01 0.01 0.01 0.01 0.01 0.01 0.01 0.01 0.00 0.00 0.00 0.00 0.00 0.00 0.00 0.00 0.00 0.00 0.00
0.00 0.00 0.00 0.00 0.00 0.00 0.00 0.00 0.00 0.00 0.00 0.00 0.00 0.00 0.00 0.00 0.00 0.01 0.02 0.03 0.04 0.04 0.04 0.01 0.00 0.00 0.00 0.01 0.00 0.00 0.01 0.02 0.03 0.03 0.03 0.02 0.01 0.00 0.00 0.00 0.00 0.00 0.00 0.00 0.00 0.00 0.00 0.00 0.00
0.00 0.00 0.00 0.00 0.00 0.00 0.00 0.00 0.00 0.00 0.00 0.00 0.00 0.00 0.00 0.00 0.01 0.01 0.03 0.05 0.04 0.02 0.01 0.01 0.00 0.00 0.00 0.00 0.00 0.01 0.01 0.02 0.02 0.02 0.01 0.00 0.00 0.00 0.00 0.00 0.00 0.00 0.00 0.01 0.01 0.01 0.01 0.01 0.00
0.00 0.00 0.00 0.00 0.00 0.00 0.00 0.00 0.00 0.00 0.00 0.00 0.00 0.00 0.00 0.00 0.00 0.01 0.03 0.05 0.04 0.02 0.02 0.01 0.00 0.00 0.00 0.00 0.00 0.00 0.01 0.01 0.00 0.00 0.00 0.00 0.00 0.00 0.00 0.00 0.00 0.01 0.01 0.01 0.01 0.02 0.01 0.01 0.01
0.00 0.00 0.00 0.00 0.00 0.00 0.00 0.00 0.00 0.00 0.00 0.00 0.00 0.00 0.00 0.00 0.00 0.01 0.03 0.04 0.04 0.03 0.02 0.01 0.01 0.01 0.00 0.00 0.00 0.00 0.00 0.00 0.00 0.00 0.00 0.00 0.00 0.00 0.01 0.01 0.01 0.01 0.01 0.01 0.01 0.01 0.01 0.01 0.01
0.00 0.00 0.00 0.00 0.00 0.00 0.00 0.00 0.00 0.00 0.00 0.00 0.00 0.00 0.00 0.00 0.01 0.01 0.02 0.04 0.04 0.03 0.02 0.01 0.01 0.01 0.01 0.00 0.00 0.00 0.00 0.00 0.00 0.00 0.01 0.00 0.00 0.00 0.01 0.01 0.01 0.00 0.00 0.00 0.00 0.00 0.00 0.00 0.00
0.00 0.00 0.00 0.00 0.00 0.00 0.00 0.00 0.00 0.00 0.00 0.00 0.00 0.00 0.01 0.01 0.01 0.02 0.03 0.03 0.04 0.04 0.02 0.02 0.01 0.01 0.01 0.01 0.01 0.01 0.00 0.00 0.00 0.00 0.01 0.00 0.00 0.00 0.00 0.00 0.00 0.00 0.00 0.00 0.00 0.00 0.00 0.00 0.00
0.00 0.00 0.00 0.00 0.00 0.00 0.00 0.00 0.00 0.00 0.00 0.00 0.00 0.01 0.01 0.02 0.02 0.03 0.03 0.03 0.03 0.03 0.03 0.03 0.02 0.02 0.01 0.01 0.00 0.00 0.00 0.00 0.00 0.00 0.00 0.00 0.00 0.00 0.00 0.00 0.00 0.00 0.00 0.00 0.00 0.00 0.00 0.00 0.00
0.00 0.00 0.00 0.00 0.00 0.00 0.00 0.00 0.00 0.00 0.01 0.01 0.01 0.01 0.01 0.02 0.02 0.03 0.03 0.03 0.03 0.03 0.03 0.03 0.02 0.02 0.01 0.01 0.00 0.00 0.00 0.00 0.00 0.00 0.00 0.00 0.00 0.00 0.00 0.00 0.00 0.00 0.00 0.00 0.00 0.00 0.00 0.00 0.00
0.00 0.00 0.00 0.00 0.00 0.00 0.00 0.00 0.00 0.00 0.00 0.01 0.01 0.01 0.01 0.02 0.02 0.03 0.03 0.03 0.03 0.03 0.03 0.03 0.02 0.01 0.01 0.00 0.00 0.00 0.00 0.00 0.00 0.00 0.00 0.00 0.00 0.00 0.00 0.00 0.00 0.00 0.00 0.00 0.00 0.00 0.00 0.00 0.00
0.00 0.00 0.00 0.00 0.00 0.00 0.00 0.00 0.00 0.00 0.00 0.00 0.01 0.01 0.02 0.02 0.02 0.03 0.03 0.03 0.02 0.02 0.02 0.02 0.01 0.01 0.00 0.00 0.00 0.00 0.00 0.00 0.00 0.00 0.00 0.00 0.00 0.00 0.00 0.00 0.00 0.00 0.00 0.00 0.00 0.00 0.00 0.00 0.00
0.00 0.00 0.00 0.00 0.00 0.00 0.00 0.00 0.00 0.00 0.00 0.00 0.00 0.01 0.01 0.02 0.02 0.02 0.02 0.02 0.02 0.02 0.01 0.01 0.00 0.00 0.00 0.00 0.00 0.00 0.00 0.00 0.00 0.00 0.00 0.00 0.00 0.00 0.00 0.00 0.00 0.00 0.00 0.00 0.00 0.00 0.00 0.00 0.00
0.00 0.00 0.00 0.00 0.00 0.00 0.00 0.00 0.00 0.00 0.00 0.00 0.00 0.01 0.01 0.02 0.02 0.02 0.03 0.02 0.02 0.01 0.01 0.00 0.00 0.00 0.00 0.00 0.00 0.00 0.00 0.00 0.00 0.00 0.00 0.00 0.00 0.00 0.00 0.00 0.00 0.00 0.00 0.00 0.00 0.00 0.00 0.00 0.00
0.00 0.00 0.00 0.00 0.00 0.00 0.00 0.00 0.00 0.00 0.00 0.00 0.00 0.01 0.01 0.02 0.03 0.04 0.03 0.03 0.02 0.01 0.00 0.00 0.00 0.00 0.00 0.00 0.00 0.00 0.00 0.00 0.00 0.00 0.00 0.00 0.00 0.00 0.00 0.00 0.00 0.00 0.00 0.00 0.00 0.00 0.00 0.00 0.00
0.00 0.00 0.00 0.00 0.00 0.00 0.00 0.00 0.00 0.00 0.00 0.00 0.00 0.01 0.02 0.03 0.04 0.05 0.05 0.04 0.02 0.01 0.00 0.00 0.00 0.00 0.00 0.00 0.00 0.00 0.00 0.00 0.00 0.00 0.00 0.00 0.00 0.00 0.00 0.00 0.00 0.00 0.00 0.00 0.00 0.00 0.00 0.00 0.00
0.00 0.00 0.00 0.00 0.00 0.00 0.00 0.00 0.00 0.00 0.00 0.00 0.01 0.01 0.02 0.04 0.05 0.06 0.05 0.03 0.02 0.01 0.00 0.00 0.00 0.00 0.00 0.00 0.00 0.00 0.00 0.00 0.00 0.00 0.00 0.00 0.00 0.00 0.00 0.00 0.00 0.00 0.00 0.00 0.00 0.00 0.00 0.00 0.00
0.00 0.00 0.00 0.00 0.00 0.00 0.00 0.00 0.00 0.00 0.00 0.01 0.01 0.02 0.04 0.06 0.06 0.05 0.04 0.03 0.02 0.01 0.01 0.01 0.01 0.00 0.00 0.00 0.00 0.00 0.00 0.00 0.00 0.00 0.00 0.00 0.00 0.00 0.00 0.00 0.00 0.00 0.00 0.00 0.00 0.00 0.00 0.00 0.00
MSLP
1010.85 1011.93 1013.13 1014.27 1015.19 1015.76 1015.96 1015.81 1015.43 1014.94 1014.49 1014.18 1014.05 1014.07 1014.19 1014.32 1014.36 1014.26 1014.04 1013.72 1013.38 1013.10 1012.96 1012.98 1013.16 1013.45 1013.78 1014.09 1014.33 1014.48 1014.57 1014.62 1014.69 1014.82 1015.01 1015.26 1015.54 1015.80 1016.01 1016.13 1016.18 1016.18 1016.16 1016.16 1016.20 1016.30 1016.44 1016.60 1016.72
1011.32 1012.52 1013.77 1014.86 1015.64 1016.01 1015.95 1015.55 1014.93 1014.26 1013.68 1013.32 1013.18 1013.25 1013.45 1013.66 1013.79 1013.79 1013.65 1013.42 1013.16 1012.96 1012.88 1012.97 1013.20 1013.52 1013.89 1014.22 1014.48 1014.66 1014.77 1014.86 1014.96 1015.10 1015.31 1015.55 1015.80 1016.02 1016.17 1016.24 1016.25 1016.21 1016.17 1016.16 1016.21 1016.32 1016.47 1016.62 1016.75
1011.87 1013.15 1014.38 1015.36 1015.96 1016.10 1015.80 1015.18 1014.38 1013.58 1012.95 1012.57 1012.47 1012.59 1012.85 1013.14 1013.34 1013.41 1013.34 1013.17 1012.98 1012.85 1012.84 1012.98 1013.25 1013.62 1014.00 1014.36 1014.63 1014.83 1014.96 1015.06 1015.17 1015.32 1015.52 1015.74 1015.96 1016.14 1016.25 1016.28 1016.25 1016.19 1016.14 1016.13 1016.19 1016.31 1016.46 1016.62 1016.74
1012.49 1013.77 1014.91 1015.73 1016.12 1016.04 1015.54 1014.75 1013.84 1013.00 1012.37 1012.04 1011.99 1012.18 1012.50 1012.84 1013.08 1013.19 1013.16 1013.03 1012.90 1012.82 1012.87 1013.05 1013.36 1013.75 1014.15 1014.50 1014.78 1014.98 1015.11 1015.22 1015.33 1015.48 1015.67 1015.87 1016.06 1016.21 1016.28 1016.29 1016.24 1016.18 1016.13 1016.14 1016.21 1016.33 1016.49 1016.64 1016.74
1013.13 1014.33 1015.32 1015.94 1016.11 1015.83 1015.18 1014.30 1013.36 1012.55 1011.99 1011.74 1011.79 1012.05 1012.42 1012.78 1013.05 1013.17 1013.15 1013.05 1012.95 1012.91 1012.99 1013.20 1013.53 1013.92 1014.31 1014.65 1014.92 1015.10 1015.23 1015.34 1015.46 1015.60 1015.78 1015.97 1016.14 1016.26 1016.32 1016.32 1016.27 1016.22 1016.19 1016.22 1016.30 1016.43 1016.57 1016.71 1016.80
1013.70 1014.76 1015.55 1015.94 1015.90 1015.46 1014.70 1013.80 1012.91 1012.20 1011.77 1011.65 1011.80 1012.15 1012.56 1012.94 1013.20 1013.32 1013.30 1013.21 1013.12 1013.11 1013.20 1013.42 1013.74 1014.11 1014.48 1014.79 1015.03 1015.20 1015.32 1015.43 1015.56 1015.71 1015.89 1016.07 1016.23 1016.35 1016.40 1016.40 1016.37 1016.34 1016.33 1016.37 1016.47 1016.59 1016.73 1016.84 1016.90
1014.11 1014.98 1015.54 1015.70 1015.47 1014.89 1014.09 1013.22 1012.44 1011.88 1011.62 1011.65 1011.92 1012.35 1012.81 1013.20 1013.46 1013.56 1013.55 1013.46 1013.38 1013.37 1013.47 1013.67 1013.97 1014.30 1014.62 1014.89 1015.10 1015.26 1015.38 1015.50 1015.64 1015.81 1016.00 1016.20 1016.36 1016.48 1016.54 1016.54 1016.53 1016.51 1016.53 1016.59 1016.69 1016.81 1016.93 1017.01 1017.04
1014.32 1014.97 1015.28 1015.21 1014.81 1014.14 1013.33 1012.54 1011.90 1011.52 1011.43 1011.61 1012.00 1012.50 1013.00 1013.42 1013.68 1013.79 1013.78 1013.71 1013.65 1013.64 1013.73 1013.91 1014.16 1014.44 1014.71 1014.94 1015.12 1015.27 1015.41 1015.55 1015.72 1015.92 1016.14 1016.35 1016.52 1016.64 1016.70 1016.72 1016.71 1016.71 1016.74 1016.81 1016.91 1017.03 1017.13 1017.20 1017.20
1014.28 1014.70 1014.77 1014.50 1013.95 1013.23 1012.45 1011.76 1011.27 1011.05 1011.12 1011.44 1011.93 1012.50 1013.04 1013.47 1013.76 1013.89 1013.92 1013.88 1013.85 1013.86 1013.94 1014.09 1014.29 1014.51 1014.72 1014.92 1015.08 1015.23 1015.39 1015.57 1015.79 1016.03 1016.27 1016.50 1016.68 1016.80 1016.86 1016.88 1016.87 1016.88 1016.92 1017.00 1017.10 1017.22 1017.32 1017.37 1017.36
1014.03 1014.22 1014.08 1013.65 1013.00 1012.24 1011.52 1010.93 1010.57 1010.49 1010.68 1011.10 1011.66 1012.27 1012.84 1013.31 1013.64 1013.83 1013.91 1013.93 1013.95 1013.98 1014.06 1014.18 1014.33 1014.50 1014.67 1014.82 1014.98 1015.14 1015.34 1015.57 1015.83 1016.11 1016.39 1016.64 1016.82 1016.94 1017.00 1017.01 1017.00 1017.01 1017.05 1017.13 1017.25 1017.36 1017.46 1017.51 1017.50
1013.64 1013.64 1013.32 1012.77 1012.06 1011.31 1010.64 1010.15 1009.89 1009.91 1010.18 1010.64 1011.23 1011.85 1012.44 1012.94 1013.32 1013.59 1013.75 1013.86 1013.93 1014.01 1014.09 1014.19 1014.30 1014.42 1014.55 1014.68 1014.84 1015.03 1015.26 1015.54 1015.85 1016.18 1016.48 1016.74 1016.93 1017.04 1017.09 1017.09 1017.08 1017.09 1017.14 1017.22 1017.34 1017.46 1017.57 1017.62 1017.62
1013.21 1013.06 1012.63 1012.01 1011.29 1010.58 1009.98 1009.56 1009.38 1009.45 1009.73 1010.19 1010.76 1011.36 1011.95 1012.47 1012.91 1013.25 1013.51 1013.70 1013.85 1013.97 1014.07 1014.15 1014.23 1014.32 1014.41 1014.54 1014.70 1014.92 1015.19 1015.52 1015.87 1016.22 1016.55 1016.81 1017.00 1017.10 1017.14 1017.14 1017.14 1017.15 1017.20 1017.29 1017.41 1017.54 1017.65 1017.72 1017.72
1012.86 1012.61 1012.13 1011.50 1010.82 1010.18 1009.65 1009.31 1009.16 1009.23 1009.48 1009.88 1010.38 1010.94 1011.50 1012.03 1012.51 1012.93 1013.28 1013.55 1013.77 1013.93 1014.04 1014.12 1014.18 1014.24 1014.32 1014.44 1014.62 1014.86 1015.17 1015.53 1015.91 1016.28 1016.60 1016.86 1017.04 1017.15 1017.19 1017.20 1017.20 1017.22 1017.28 1017.38 1017.50 1017.62 1017.73 1017.80 1017.82
1012.70 1012.41 1011.92 1011.34 1010.74 1010.20 1009.76 1009.47 1009.34 1009.38 1009.56 1009.86 1010.26 1010.73 1011.24 1011.76 1012.27 1012.74 1013.15 1013.50 1013.76 1013.95 1014.07 1014.14 1014.19 1014.24 1014.31 1014.44 1014.64 1014.92 1015.25 1015.62 1016.00 1016.37 1016.68 1016.93 1017.11 1017.21 1017.26 1017.29 1017.31 1017.35 1017.42 1017.52 1017.63 1017.74 1017.84 1017.90 1017.92
1012.75 1012.46 1012.03 1011.54 1011.06 1010.64 1010.30 1010.06 1009.93 1009.91 1009.99 1010.18 1010.46 1010.82 1011.26 1011.75 1012.26 1012.76 1013.21 1013.59 1013.88 1014.08 1014.21 1014.27 1014.31 1014.35 1014.44 1014.59 1014.82 1015.11 1015.45 1015.83 1016.20 1016.54 1016.83 1017.05 1017.21 1017.32 1017.39 1017.44 1017.49 1017.56 1017.64 1017.73 1017.83 1017.91 1017.98 1018.01 1018.01
1012.99 1012.73 1012.39 1012.03 1011.70 1011.41 1011.17 1010.98 1010.84 1010.75 1010.73 1010.79 1010.94 1011.20 1011.56 1012.00 1012.49 1012.99 1013.46 1013.85 1014.15 1014.34 1014.46 1014.51 1014.55 1014.61 1014.72 1014.90 1015.15 1015.46 1015.81 1016.17 1016.51 1016.81 1017.05 1017.24 1017.39 1017.50 1017.59 1017.68 1017.76 1017.85 1017.94 1018.02 1018.08 1018.13 1018.14 1018.13 1018.10
1013.34 1013.14 1012.92 1012.70 1012.52 1012.37 1012.22 1012.07 1011.92 1011.76 1011.64 1011.57 1011.61 1011.76 1012.05 1012.44 1012.91 1013.40 1013.86 1014.24 1014.52 1014.71 1014.80 1014.85 1014.90 1014.98 1015.12 1015.34 1015.63 1015.96 1016.31 1016.65 1016.94 1017.19 1017.38 1017.53 1017.65 1017.76 1017.87 1017.98 1018.09 1018.20 1018.29 1018.36 1018.38 1018.38 1018.34 1018.28 1018.20
1013.68 1013.57 1013.47 1013.41 1013.38 1013.35 1013.29 1013.17 1012.99 1012.76 1012.53 1012.36 1012.29 1012.37 1012.60 1012.96 1013.41 1013.89 1014.33 1014.70 1014.97 1015.13 1015.21 1015.26 1015.32 1015.44 1015.63 1015.90 1016.23 1016.58 1016.93 1017.24 1017.49 1017.68 1017.81 1017.91 1017.99 1018.09 1018.20 1018.33 1018.47 1018.59 1018.68 1018.72 1018.71 1018.65 1018.56 1018.44 1018.33
1013.92 1013.90 1013.94 1014.04 1014.14 1014.22 1014.22 1014.10 1013.88 1013.57 1013.25 1012.98 1012.84 1012.86 1013.06 1013.41 1013.86 1014.35 1014.80 1015.16 1015.42 1015.57 1015.65 1015.70 1015.79 1015.95 1016.19 1016.51 1016.89 1017.27 1017.62 1017.91 1018.11 1018.24 1018.31 1018.36 1018.40 1018.48 1018.58 1018.72 1018.86 1018.98 1019.06 1019.08 1019.04 1018.93 1018.80 1018.64 1018.50
1013.97 1014.08 1014.26 1014.49 1014.72 1014.88 1014.90 1014.76 1014.48 1014.08 1013.67 1013.32 1013.12 1013.12 1013.31 1013.69 1014.18 1014.70 1015.18 1015.57 1015.83 1015.99 1016.07 1016.15 1016.27 1016.47 1016.76 1017.14 1017.56 1017.97 1018.33 1018.60 1018.77 1018.85 1018.86 1018.85 1018.85 1018.89 1018.98 1019.10 1019.24 1019.35 1019.42 1019.42 1019.35 1019.22 1019.06 1018.88 1018.72
1013.82 1014.06 1014.39 1014.76 1015.09 1015.30 1015.32 1015.14 1014.76 1014.27 1013.76 1013.34 1013.10 1013.09 1013.32 1013.76 1014.32 1014.91 1015.46 1015.89 1016.19 1016.38 1016.49 1016.59 1016.74 1016.98 1017.32 1017.75 1018.20 1018.65 1019.02 1019.28 1019.42 1019.45 1019.42 1019.36 1019.31 1019.31 1019.36 1019.46 1019.58 1019.68 1019.73 1019.72 1019.64 1019.51 1019.34 1019.16 1019.00
1013.49 1013.90 1014.39 1014.89 1015.30 1015.54 1015.53 1015.27 1014.79 1014.18 1013.58 1013.09 1012.82 1012.83 1013.12 1013.64 1014.30 1015.00 1015.64 1016.16 1016.53 1016.76 1016.91 1017.04 1017.22 1017.49 1017.86 1018.31 1018.79 1019.25 1019.63 1019.89 1020.01 1020.01 1019.94 1019.84 1019.75 1019.70 1019.72 1019.78 1019.87 1019.94 1019.98 1019.97 1019.89 1019.77 1019.62 1019.46 1019.32
1013.08 1013.65 1014.30 1014.92 1015.41 1015.65 1015.60 1015.24 1014.65 1013.92 1013.22 1012.67 1012.38 1012.42 1012.78 1013.40 1014.19 1015.02 1015.79 1016.42 1016.87 1017.17 1017.37 1017.53 1017.73 1018.00 1018.38 1018.83 1019.32 1019.78 1020.15 1020.40 1020.51 1020.50 1020.40 1020.26 1020.14 1020.05 1020.02 1020.04 1020.09 1020.14 1020.17 1020.15 1020.09 1019.99 1019.87 1019.75 1019.62
1012.64 1013.39 1014.19 1014.93 1015.47 1015.71 1015.60 1015.15 1014.44 1013.60 1012.80 1012.20 1011.90 1011.97 1012.41 1013.15 1014.08 1015.05 1015.96 1016.71 1017.27 1017.65 1017.89 1018.08 1018.28 1018.54 1018.90 1019.32 1019.78 1020.22 1020.57 1020.81 1020.91 1020.88 1020.76 1020.60 1020.44 1020.32 1020.24 1020.22 1020.24 1020.26 1020.28 1020.26 1020.21 1020.14 1020.06 1019.96 1019.87
1012.26 1013.16 1014.09 1014.92 1015.50 1015.73 1015.56 1015.02 1014.21 1013.28 1012.41 1011.76 1011.47 1011.59 1012.11 1012.96 1014.01 1015.13 1016.18 1017.06 1017.73 1018.19 1018.48 1018.69 1018.88 1019.11 1019.41 1019.79 1020.19 1020.57 1020.89 1021.10 1021.18 1021.14 1021.01 1020.83 1020.65 1020.49 1020.38 1020.32 1020.30 1020.29 1020.29 1020.28 1020.25 1020.20 1020.14 1020.08 1020.00
1011.96 1012.97 1014.00 1014.88 1015.47 1015.68 1015.46 1014.85 1013.97 1012.98 1012.06 1011.41 1011.13 1011.30 1011.90 1012.85 1014.03 1015.28 1016.46 1017.46 1018.23 1018.77 1019.11 1019.33 1019.50 1019.69 1019.93 1020.22 1020.54 1020.85 1021.11 1021.27 1021.32 1021.26 1021.12 1020.93 1020.73 1020.55 1020.41 1020.31 1020.26 1020.23 1020.22 1020.20 1020.18 1020.14 1020.10 1020.05 1019.97
1011.74 1012.81 1013.86 1014.74 1015.32 1015.49 1015.23 1014.58 1013.67 1012.66 1011.75 1011.11 1010.88 1011.11 1011.78 1012.83 1014.11 1015.47 1016.76 1017.86 1018.73 1019.34 1019.73 1019.96 1020.11 1020.24 1020.40 1020.60 1020.83 1021.05 1021.22 1021.33 1021.33 1021.25 1021.09 1020.89 1020.68 1020.48 1020.32 1020.20 1020.13 1020.08 1020.05 1020.03 1020.00 1019.97 1019.94 1019.88 1019.79
1011.59 1012.62 1013.63 1014.45 1014.97 1015.09 1014.80 1014.14 1013.23 1012.26 1011.40 1010.83 1010.67 1010.97 1011.72 1012.84 1014.20 1015.64 1017.02 1018.21 1019.15 1019.83 1020.26 1020.51 1020.64 1020.72 1020.81 1020.91 1021.03 1021.15 1021.24 1021.27 1021.23 1021.11 1020.94 1020.73 1020.51 1020.30 1020.13 1020.00 1019.91 1019.85 1019.81 1019.78 1019.75 1019.71 1019.66 1019.58 1019.47
1011.46 1012.37 1013.26 1013.96 1014.38 1014.43 1014.11 1013.46 1012.61 1011.72 1010.97 1010.51 1010.45 1010.85 1011.68 1012.86 1014.27 1015.76 1017.18 1018.43 1019.43 1020.16 1020.63 1020.90 1021.02 1021.07 1021.09 1021.11 1021.14 1021.16 1021.16 1021.12 1021.02 1020.87 1020.67 1020.45 1020.23 1020.03 1019.86 1019.74 1019.64 1019.58 1019.53 1019.49 1019.44 1019.39 1019.31 1019.20 1019.05
1011.35 1012.07 1012.75 1013.28 1013.56 1013.52 1013.17 1012.57 1011.81 1011.06 1010.45 1010.14 1010.22 1010.72 1011.61 1012.84 1014.28 1015.78 1017.23 1018.50 1019.53 1020.29 1020.80 1021.10 1021.23 1021.26 1021.24 1021.19 1021.14 1021.08 1020.99 1020.88 1020.73 1020.54 1020.33 1020.11 1019.90 1019.71 1019.55 1019.44 1019.35 1019.29 1019.24 1019.19 1019.13 1019.04 1018.93 1018.78 1018.58
Thickness
5790 5789 5786 5775 5754 5733 5739 5755 5767 5775 5779 5786 5787 5779 5771 5765 5759 5755 5775 5783 5781 5777 5773 5768 5764 5761 5758 5756 5754 5752 5751 5749 5749 5748 5748 5747 5746 5746 5745 5744 5744 5744 5743 5743 5742 5742 5741 5741 5740
5789 5788 5777 5760 5738 5727 5740 5762 5768 5778 5785 5789 5787 5781 5773 5769 5772 5771 5774 5777 5776 5773 5769 5765 5761 5758 5755 5753 5750 5749 5747 5745 5744 5744 5743 5742 5742 5741 5741 5740 5740 5739 5739 5738 5737 5737 5736 5735 5735
5788 5784 5763 5745 5735 5734 5754 5773 5777 5784 5791 5789 5781 5780 5774 5769 5773 5773 5775 5775 5772 5768 5765 5761 5758 5755 5753 5750 5748 5746 5744 5742 5741 5740 5739 5738 5737 5737 5736 5735 5735 5734 5734 5733 5732 5731 5731 5730 5730
5782 5769 5755 5740 5743 5752 5764 5780 5783 5782 5786 5787 5780 5770 5774 5781 5780 5778 5777 5774 5770 5766 5762 5759 5756 5753 5751 5748 5746 5743 5741 5740 5738 5737 5736 5734 5734 5733 5732 5731 5730 5730 5729 5728 5727 5726 5726 5725 5725
5775 5757 5742 5732 5745 5762 5774 5784 5786 5780 5780 5782 5777 5767 5767 5778 5782 5779 5775 5772 5767 5763 5760 5756 5753 5751 5748 5746 5743 5741 5739 5737 5735 5734 5733 5731 5730 5729 5728 5727 5727 5726 5725 5723 5722 5721 5720 5720 5720
5759 5748 5730 5731 5748 5767 5780 5789 5787 5781 5778 5779 5776 5766 5766 5777 5777 5774 5772 5768 5764 5761 5757 5754 5751 5748 5746 5744 5742 5739 5737 5735 5733 5732 5730 5729 5727 5726 5725 5723 5723 5722 5721 5720 5718 5717 5715 5715 5714
5755 5742 5736 5743 5748 5762 5784 5793 5788 5780 5776 5778 5779 5765 5765 5771 5774 5772 5768 5764 5760 5757 5754 5750 5748 5746 5744 5742 5740 5738 5735 5733 5731 5729 5727 5726 5724 5722 5721 5720 5718 5718 5717 5715 5714 5712 5711 5709 5709
5764 5748 5744 5742 5749 5763 5786 5793 5794 5786 5780 5788 5784 5769 5764 5772 5774 5769 5763 5758 5755 5752 5750 5748 5745 5743 5741 5740 5738 5736 5734 5732 5729 5727 5724 5722 5720 5719 5717 5715 5714 5713 5712 5710 5708 5706 5705 5704 5703
5768 5742 5736 5747 5757 5770 5786 5789 5792 5797 5787 5785 5786 5783 5783 5779 5772 5764 5756 5752 5750 5749 5748 5746 5743 5741 5739 5737 5736 5734 5731 5729 5726 5723 5720 5718 5716 5714 5712 5710 5709 5707 5706 5704 5703 5701 5699 5698 5696
5758 5738 5750 5765 5774 5778 5783 5787 5789 5786 5779 5777 5778 5782 5783 5775 5768 5761 5755 5750 5748 5747 5747 5746 5744 5741 5738 5736 5734 5731 5728 5725 5723 5719 5716 5714 5712 5709 5707 5705 5703 5701 5699 5698 5696 5695 5693 5691 5689
5760 5752 5764 5774 5781 5783 5783 5788 5792 5781 5771 5780 5780 5777 5776 5770 5765 5760 5756 5752 5751 5750 5750 5747 5744 5740 5738 5735 5732 5728 5725 5722 5719 5716 5713 5710 5707 5704 5702 5700 5697 5695 5694 5691 5689 5687 5686 5684 5682
5760 5765 5771 5777 5786 5785 5786 5789 5785 5785 5789 5799 5794 5787 5778 5770 5766 5762 5757 5753 5752 5750 5749 5746 5743 5739 5736 5733 5730 5726 5723 5719 5715 5712 5709 5705 5702 5700 5697 5694 5692 5689 5687 5684 5682 5680 5678 5676 5674
5760 5765 5777 5782 5782 5783 5787 5786 5785 5785 5794 5796 5789 5782 5776 5772 5768 5763 5759 5754 5751 5748 5746 5744 5741 5737 5734 5730 5727 5723 5719 5715 5711 5707 5704 5701 5698 5695 5692 5689 5686 5683 5681 5678 5675 5673 5670 5668 5665
5764 5768 5772 5777 5781 5787 5784 5783 5779 5778 5788 5786 5781 5776 5774 5772 5767 5760 5754 5750 5747 5745 5742 5740 5736 5734 5731 5727 5723 5719 5715 5711 5707 5703 5699 5696 5693 5690 5687 5683 5680 5678 5675 5673 5670 5667 5663 5660 5657
5761 5761 5766 5774 5775 5780 5782 5769 5767 5774 5778 5775 5773 5772 5771 5768 5764 5759 5755 5750 5746 5741 5738 5734 5732 5730 5727 5723 5719 5715 5711 5707 5702 5698 5695 5692 5689 5685 5682 5678 5675 5671 5669 5666 5663 5659 5656 5652 5649
5754 5747 5744 5759 5766 5772 5769 5751 5760 5767 5767 5763 5766 5766 5765 5763 5760 5756 5751 5745 5741 5736 5732 5729 5728 5724 5721 5717 5713 5709 5705 5701 5696 5692 5689 5685 5682 5679 5675 5671 5667 5664 5661 5658 5654 5650 5646 5642 5637
5726 5725 5734 5747 5758 5759 5753 5745 5753 5758 5758 5756 5759 5760 5759 5755 5751 5748 5743 5738 5733 5729 5726 5722 5720 5717 5714 5710 5706 5702 5697 5692 5688 5684 5680 5677 5673 5670 5666 5661 5657 5654 5650 5646 5642 5637 5632 5628 5624
5713 5720 5726 5732 5745 5746 5738 5736 5742 5747 5748 5748 5751 5753 5751 5747 5743 5739 5735 5730 5726 5722 5719 5715 5712 5709 5706 5703 5698 5693 5687 5682 5678 5673 5669 5665 5661 5657 5653 5648 5644 5640 5635 5630 5626 5621 5617 5612 5608
5720 5717 5716 5725 5740 5734 5726 5724 5727 5734 5735 5735 5737 5741 5741 5738 5733 5730 5726 5722 5718 5713 5710 5706 5703 5700 5697 5693 5688 5681 5674 5669 5665 5660 5656 5652 5648 5644 5640 5634 5629 5625 5619 5614 5610 5605 5600 5596 5592
5711 5708 5709 5721 5733 5726 5717 5714 5719 5725 5727 5729 5729 5729 5728 5724 5723 5720 5717 5713 5709 5704 5700 5696 5692 5689 5686 5682 5676 5670 5662 5656 5651 5647 5644 5639 5635 5631 5626 5620 5615 5610 5605 5599 5594 5589 5584 5579 5575
5703 5702 5707 5710 5717 5716 5710 5703 5708 5716 5722 5723 5724 5723 5721 5718 5714 5711 5707 5702 5698 5694 5690 5687 5682 5678 5673 5669 5664 5658 5652 5645 5639 5634 5630 5626 5622 5617 5612 5607 5601 5595 5589 5584 5578 5573 5568 5562 5557
5692 5708 5707 5705 5695 5687 5698 5677 5696 5705 5710 5715 5716 5716 5715 5712 5707 5702 5697 5692 5688 5683 5680 5676 5671 5665 5661 5657 5652 5647 5640 5632 5625 5621 5617 5614 5610 5605 5599 5593 5587 5580 5573 5567 5562 5557 5551 5545 5541
5702 5713 5705 5700 5691 5681 5684 5674 5678 5695 5700 5709 5714 5714 5711 5707 5701 5695 5689 5684 5679 5674 5669 5665 5659 5653 5648 5644 5639 5634 5627 5621 5615 5610 5606 5602 5597 5592 5586 5579 5572 5564 5558 5551 5545 5539 5534 5529 5525
5709 5703 5689 5678 5670 5663 5680 5669 5670 5690 5705 5712 5713 5712 5707 5701 5694 5687 5680 5675 5669 5663 5658 5653 5647 5641 5636 5632 5628 5623 5617 5611 5605 5600 5594 5589 5583 5577 5571 5564 5556 5549 5542 5536 5530 5524 5519 5514 5511
5699 5677 5654 5655 5645 5654 5683 5671 5676 5703 5716 5719 5715 5708 5701 5694 5686 5678 5671 5665 5658 5650 5645 5639 5634 5627 5623 5619 5614 5610 5605 5600 5594 5588 5582 5576 5569 5563 5556 5549 5542 5535 5529 5523 5517 5511 5507 5503 5499
5685 5674 5650 5643 5643 5657 5674 5665 5686 5704 5711 5714 5710 5703 5694 5685 5677 5669 5661 5654 5646 5639 5632 5626 5621 5615 5611 5607 5603 5598 5594 5588 5583 5577 5572 5565 5558 5551 5544 5536 5529 5522 5516 5510 5504 5500 5496 5492 5488
5679 5669 5678 5658 5654 5647 5654 5668 5687 5701 5703 5706 5702 5695 5687 5677 5668 5658 5650 5642 5636 5628 5621 5615 5610 5605 5600 5596 5591 5587 5582 5578 5573 5567 5561 5554 5547 5540 5533 5525 5518 5511 5504 5499 5493 5489 5485 5481 5477
5693 5680 5657 5648 5639 5635 5650 5660 5673 5690 5693 5696 5695 5690 5682 5670 5659 5648 5640 5632 5625 5618 5611 5605 5599 5594 5589 5584 5579 5575 5570 5567 5562 5556 5550 5542 5534 5527 5520 5513 5506 5499 5494 5489 5484 5479 5474 5469 5465
5679 5672 5666 5649 5647 5639 5636 5654 5688 5694 5696 5695 5694 5687 5675 5663 5651 5641 5631 5622 5615 5607 5600 5593 5587 5582 5576 5571 5567 5564 5559 5555 5550 5544 5537 5530 5522 5515 5508 5502 5495 5489 5484 5479 5474 5469 5463 5458 5453
5686 5679 5662 5651 5649 5642 5639 5655 5696 5693 5695 5692 5686 5679 5668 5656 5645 5634 5623 5613 5606 5598 5590 5582 5576 5570 5565 5560 5556 5552 5549 5543 5538 5532 5525 5517 5510 5504 5498 5491 5485 5480 5475 5470 5464 5458 5452 5445 5440